Flag for Spain Weather past 2 weeks in Huelva, Spain

Now
64 °F

Passing clouds.


Feels Like: 64 °F
Forecast: 47 / 69 °F
Wind: 22 mph from Southeast

Location: Rota Airport

Current Time: Mar 5, 2015 at 4:12:57 PM

Latest Report: Mar 5, 2015 at 3:00 PM


Visibility: N/A

Pressure: 30.27 "Hg

Humidity: 52%

Dew point: 46 °F

Location of HuelvaLocation

Historic Weather in Huelva — Graph

°F

Huelva temperature yesterday

Maximum temperature yesterday: 73 °F (at 5:00 PM)
Minimum temperature yesterday: 48 °F (at 7:00 AM)
Average temperature yesterday: 60 °F

Past Weeks' High & Low Weather Summary

 TemperatureHumidityPressure
High73 °F (Mar 4, 5:00 PM)100% (Mar 1, 7:00 AM)30.54 "Hg (Mar 1, 7:00 AM)
Low41 °F (Feb 19, 8:00 AM)43% (Feb 19, 5:00 PM)29.86 "Hg (Feb 21, 4:00 PM)
Average55 °F78%30.25 "Hg
* Reported Feb 18 3:00 PM — Mar 5 3:00 PM, Huelva, Weather by CustomWeather, © 2015

Note: Actual official high and low records may vary slightly from our data, if they occured in-between our weather recording intervals... More about our weather records

Advertising

Huelva weather history for previous 24 hours

 ConditionsComfort  
Time TempWeatherWind HumidityBarometerVisibility
3:00 PM
Thu, Mar 5
64 °FPassing clouds.22 mph52%30.27 "HgN/A
2:00 PM64 °FPassing clouds.21 mph56%30.30 "HgN/A
1:00 PM66 °FPassing clouds.12 mph52%30.33 "HgN/A
12:00 PM63 °FPassing clouds.10 mph56%30.33 "HgN/A
11:00 AM57 °FPassing clouds.14 mph48%30.36 "HgN/A
10:00 AM54 °FPassing clouds.14 mph51%30.33 "HgN/A
9:00 AM50 °FSunny.12 mph58%30.33 "Hg10 mi
8:00 AM48 °FPassing clouds.8 mph66%30.30 "HgN/A
7:00 AM52 °FPassing clouds.8 mph62%30.30 "HgN/A
6:00 AM50 °FPassing clouds.5 mph71%30.30 "HgN/A
5:00 AM54 °FClear.7 mph88%30.30 "Hg10 mi
4:00 AM52 °FClear.2 mph88%30.30 "Hg10 mi
3:00 AM55 °FPassing clouds.5 mph88%30.30 "HgN/A
2:00 AM55 °FPassing clouds.5 mph72%30.30 "HgN/A
1:00 AM57 °FClear.12 mph72%30.30 "Hg10 mi
12:00 AM61 °FClear.12 mph68%30.27 "Hg10 mi
11:00 PM
Wed, Mar 4
61 °FClear.9 mph72%30.27 "Hg10 mi
10:00 PM63 °FClear.10 mph68%30.27 "Hg10 mi
9:00 PM64 °FPassing clouds.9 mph60%30.27 "HgN/A
8:00 PM66 °FPassing clouds.8 mph60%30.24 "HgN/A
7:00 PM68 °FPassing clouds.9 mph56%30.24 "HgN/A
6:00 PM72 °FPassing clouds.13 mph50%30.24 "HgN/A
5:00 PM73 °FSunny.13 mph47%30.24 "Hg10 mi
4:00 PM72 °FPassing clouds.12 mph47%30.24 "HgN/A
Weather by CustomWeather, © 2015

See weather overviewHow to use our weather pages